Location: Hohe Wand Wildgehege
(47.8330°N, 16.0440°E)
Time: 09:13:24
(UTC+01:00)

ISS - Pass Details

Date: 30 October 2019
Orbit: 412 x 421 km, 51.6° (Epoch: 14 November)

Event Time Altitude Azimuth Distance (km) Brightness Sun altitude
Exits shadow 05:44:43 13° 271° (W) 1,339 -1.9 -9.2°
Maximum altitude 05:47:36 51° 347° (NNW) 537 -3.4 -8.8°
Drops below altitude 10° 05:50:51 11° 65° (ENE) 1,478 -0.1 -8.2°
Sets 05:53:04 0° 71° (ENE) 2,371 1.2 -7.9°
